TIME,�g��[���C[MJ/h],����[MJ/h],�Ɩ�[MJ/h],�~�[[MJ/h],�①��[MJ/h],��y���[MJ/h],�Ǝ��q��[MJ/h],���̑�[MJ/h],�����G�l���M�[[MJ/h]
2003/4/1 0:00,0.005,0,0,0,0.6621,0.1927,0.2393,0.5881,0
2003/4/1 0:15,0.005,0,0,0,0.284,0.1917,0.2199,0.5616,0
2003/4/1 0:30,0.005,0,0,0,0.4254,0.1898,0.2471,0.5659,0
2003/4/1 0:45,0.005,0,0,0,0.6529,0.1905,0.222,0.5399,0
2003/4/1 1:00,0.005,0,0,0,0.3518,0.1917,0.1526,0.5545,0
2003/4/1 1:15,0.005,0,0,0,0.5864,0.1917,0.308,0.5751,0
2003/4/1 1:30,0.005,0,0,0,0.5967,0.1915,0.1525,0.572,0
2003/4/1 1:45,0.005,0,0,0,0.1832,0.1921,0.1531,0.5568,0
2003/4/1 2:00,0.005,0,0,0,0.6633,0.1915,0.311,0.5558,0
2003/4/1 2:15,0.005,0,0,0,0.6096,0.1917,0.1528,0.553,0
2003/4/1 2:30,0.0052,0,0,0,0.3001,0.1924,0.3128,0.5721,0
2003/4/1 2:45,0.005,0,0,0,0.5072,0.1924,0.1538,0.5844,0
2003/4/1 3:00,0.0052,0,0,0,0.5708,0.192,0.2657,0.5495,0
2003/4/1 3:15,0.0049,0,0,0,0.3331,0.1909,0.2036,0.5607,0
2003/4/1 3:30,0.005,0,0.0003,0,0.6777,0.1912,0.2241,0.552,0
2003/4/1 3:45,0.005,0,0,0,0.3185,0.1908,0.2402,0.5668,0
2003/4/1 4:00,0.005,0,0,0,0.4337,0.1911,0.1549,0.5417,0
2003/4/1 4:15,0.005,0,0,0,0.704,0.1914,0.3138,0.553,0
2003/4/1 4:30,0.005,0,0,0,0.3613,0.1911,0.1548,0.5746,0
2003/4/1 4:45,0.005,0,0,0,0.3541,0.1909,0.2249,0.5527,0
2003/4/1 5:00,0.005,0,0.0003,0,0.685,0.1908,0.2426,0.5537,0
2003/4/1 5:15,0.005,0,0,0,0.3208,0.1909,0.2268,0.5358,0
2003/4/1 5:30,0.0049,0,0,0,0.4954,0.1898,0.2439,0.5779,0
2003/4/1 5:45,0.005,0,0.0001,0,0.4455,0.1904,0.2297,0.5386,0
2003/4/1 6:00,0.0049,0,0.2328,0,0.3213,0.3014,0.1581,0.5456,0
2003/4/1 6:15,0.0048,0,0.3996,0.0678,0.6932,0.5442,0.3577,1.352,0
2003/4/1 6:30,0.0049,0,0,0.4627,0.3144,0.534,0.328,0.815,0
2003/4/1 6:45,0.005,0,0,0,0.3501,0.192,0.1983,0.7485,0
2003/4/1 7:00,0.005,0,0,0,0.6886,0.2308,0.197,0.7453,0
2003/4/1 7:15,0.005,0,0,0,0.3273,0.1911,0.328,0.7536,0
2003/4/1 7:30,0.0052,0,0,0,0.4493,0.1921,0.159,0.7224,0
2003/4/1 7:45,0.005,0,0,0,0.4987,0.1928,0.3233,0.7328,0
2003/4/1 8:00,0.005,0,0,0,0.2798,0.1921,0.1594,0.7419,0
2003/4/1 8:15,0.005,0,0.0003,0,0.541,0.1917,0.3226,0.7855,0
2003/4/1 8:30,0.005,0,0.021,0.8054,0.5831,0.3622,0.7615,0.5606,0
2003/4/1 8:45,0.005,0,0,0,0.4437,0.5557,0.246,0.4844,0
2003/4/1 9:00,0.0049,0,0,0,0.8529,0.562,0.2428,0.4761,0
2003/4/1 9:15,0.0049,0,0.0612,0,0.8401,0.5808,0.7586,0.4539,0
2003/4/1 9:30,0.0049,0,0.0132,0,0.6997,0.5805,0.4242,0.4631,0
2003/4/1 9:45,0.005,0,0.0009,0,0.8042,0.5718,0.1525,0.4656,0
2003/4/1 10:00,0.0049,0,0.0009,0,0.4062,0.2815,0.2413,0.4847,0
2003/4/1 10:15,0.005,0,0.0004,0,0.6068,0.1909,0.2222,0.4681,0
2003/4/1 10:30,0.0049,0,0.0017,0,0.4755,0.1911,0.2452,0.4609,0
2003/4/1 10:45,0.005,0,0.0004,0,0.3231,0.1911,0.2202,0.4769,0
2003/4/1 11:00,0.005,0,0,0,0.6398,0.1912,0.1529,0.4762,0
2003/4/1 11:15,0.0049,0,0.0006,0,0.5928,0.1907,0.3076,0.489,0
2003/4/1 11:30,0.005,0,0.0003,0,0.2079,0.1904,0.1524,0.4808,0
2003/4/1 11:45,0.005,0,0,0,0.6229,0.1901,0.311,1.2578,0
2003/4/1 12:00,0.005,0,1.0565,0,0.5701,0.2292,0.1554,1.3435,0
2003/4/1 12:15,0.005,0,0.002,0,0.3171,0.1927,0.3072,0.4657,0
2003/4/1 12:30,0.0052,0,0.6978,0,0.5655,0.1927,0.2402,0.4722,0
2003/4/1 12:45,0.9409,0,0.0004,0.7082,0.4411,1.534,0.1544,-0.4779,0
2003/4/1 13:00,0.9151,0,0,0,0.4235,1.5538,0.3142,-0.5008,0
2003/4/1 13:15,0.7163,0,0,0,0.6962,1.3209,0.1521,-0.2892,0
2003/4/1 13:30,0.5295,0,0,0,0.4726,1.104,0.3131,-0.0688,0
2003/4/1 13:45,0.5741,0,0,0,0.2648,1.1238,0.1508,-0.0582,0
2003/4/1 14:00,0.4313,0,0,0,0.7224,0.9775,0.1503,0.0174,0
2003/4/1 14:15,0.5151,0,0,0,0.4854,1.0466,0.3033,-0.0109,0
2003/4/1 14:30,0.4415,0,0,0,0.3757,1.0197,0.1499,-0.0086,0
2003/4/1 14:45,0.3568,0,0,0,0.5685,0.8948,0.3054,0.1404,0
2003/4/1 15:00,0.3692,0,0,0,0.5363,0.9369,0.1509,0.1012,0
2003/4/1 15:15,0.4164,0,0,0,0.3902,0.9876,0.2205,0.0359,0
2003/4/1 15:30,0.414,0,0,0,0.7,0.994,0.2359,0.0531,0
2003/4/1 15:45,0.005,0,0,0,0.3607,0.374,0.2256,0.4892,0
2003/4/1 16:00,0.005,0,0,0,0.3957,0.1934,0.3148,0.4362,0
2003/4/1 16:15,0.005,0,0,0,0.6962,0.1921,0.1519,0.4656,0
2003/4/1 16:30,0.005,0,0,0,0.5285,0.1921,0.2225,0.4715,0
2003/4/1 16:45,0.005,0,0,0,0.2062,0.1918,0.2321,0.4676,0
2003/4/1 17:00,0.005,0,0,0,0.7155,0.192,0.2245,0.4523,0
2003/4/1 17:15,0.005,0,0.0019,0,0.5036,0.1908,0.2403,0.5645,0
2003/4/1 17:30,0.0049,0,0.2483,0,0.3833,0.2553,0.1502,0.5142,0
2003/4/1 17:45,0.624,0,0.4215,0,0.5268,1.1873,0.2174,-0.15,0
2003/4/1 18:00,0.6719,0,0.4127,0,0.5028,1.2355,0.2376,-0.1404,0
2003/4/1 18:15,0.5462,0,0.4044,0,0.4347,1.1298,0.2197,-0.0492,0
2003/4/1 18:30,0.5527,0,0.5292,0,0.6972,1.1277,0.2343,-0.0886,0
2003/4/1 18:45,0.4442,0,0.7896,0,0.327,1.0378,0.2213,0.1832,0
2003/4/1 19:00,0.426,0,0.8718,0.516,0.4946,0.9981,0.2439,0.3624,0
2003/4/1 19:15,0.4274,0,0.7207,0.2049,0.7249,0.9991,0.2222,0.2904,0
2003/4/1 19:30,0.4254,0,0.6791,0,0.4699,0.9975,0.1548,0.3603,0
2003/4/1 19:45,0.4205,0,0.6774,0,0.5872,0.9674,0.3125,0.3557,0
2003/4/1 20:00,0.4182,0,0.6787,0,1.137,0.9999,0.1541,0.3518,0
2003/4/1 20:15,0.417,0,0.6769,0,0.6199,1.0505,0.3056,0.3198,0
2003/4/1 20:30,0.415,0,0.6756,0,0.6699,1.031,0.1554,0.3475,0
2003/4/1 20:45,0.4156,0,0.9793,0,0.7844,1.0554,0.1554,0.5314,0
2003/4/1 21:00,0.4133,0,1.1081,0,0.4006,1.0293,0.3087,0.3092,0
2003/4/1 21:15,0.2762,0,0.7501,0,0.6039,0.8781,0.2317,0.4391,0
2003/4/1 21:30,0.4094,0,0.6404,0,0.5262,1.0068,0.2438,0.3165,0
2003/4/1 21:45,0.2691,0,0.7518,0,0.3267,0.8525,0.2261,0.448,0
2003/4/1 22:00,0.4006,0,0.8376,0,0.632,0.9396,0.1565,0.3171,0
2003/4/1 22:15,0.2664,0,0.7423,0,0.5937,0.7773,0.3084,0.5004,0
2003/4/1 22:30,0.4018,0,0.4005,0,0.1956,0.9265,0.1574,0.3845,0
2003/4/1 22:45,0.2699,0,0.4009,0,0.6432,0.7871,0.3188,0.5168,0
2003/4/1 23:00,0.4029,0,0.5855,0,0.5363,0.9441,0.1585,0.2019,0
2003/4/1 23:15,0.2704,0,0.6647,0,0.3747,0.789,0.3453,0.3257,0
2003/4/1 23:30,0.4094,0,1.5264,0,0.6211,0.9534,0.157,0.1441,0
2003/4/1 23:45,0.1405,0,0.7992,0,0.3705,0.5021,0.3188,0.505,0
2003/4/2 0:00,0.005,0,0.053,0,0.463,0.4802,0.1577,0.5509,0
2003/4/2 0:15,0.005,0,0.0084,0,0.6926,0.4136,0.3181,0.5371,0
2003/4/2 0:30,0.005,0,0,0,0.303,0.1901,0.1585,0.5603,0
2003/4/2 0:45,0.0049,0,0.0003,0,0.4293,0.1901,0.3151,0.5322,0
2003/4/2 1:00,0.005,0,0,0,0.6738,0.1899,0.1565,0.5597,0
2003/4/2 1:15,0.005,0,0,0,0.2919,0.1901,0.159,0.5557,0
2003/4/2 1:30,0.005,0,0.0121,0,0.4798,0.1902,0.3145,0.5465,0
2003/4/2 1:45,0.005,0,0.0003,0,0.4932,0.1907,0.2742,0.5553,0
2003/4/2 2:00,0.005,0,0.0001,0,0.3681,0.1911,0.2267,0.5348,0
2003/4/2 2:15,0.005,0,0.0003,0,0.6765,0.1912,0.2527,0.5672,0
2003/4/2 2:30,0.005,0,0,0,0.2491,0.1814,0.2275,0.5862,0
2003/4/2 2:45,0.005,0,0,0,0.43,0.1914,0.2513,0.5476,0
2003/4/2 3:00,0.005,0,0.0003,0,0.696,0.192,0.2364,0.5596,0
2003/4/2 3:15,0.005,0,0.0006,0,0.3024,0.1922,0.2491,0.5662,0
2003/4/2 3:30,0.0052,0,0.003,0,0.4442,0.1918,0.2321,0.5796,0
2003/4/2 3:45,0.005,0,0.0009,0,0.4752,0.1918,0.2454,0.5574,0
2003/4/2 4:00,0.0049,0,0.0001,0,0.3882,0.1888,0.2314,0.5475,0
2003/4/2 4:15,0.005,0,0.0003,0,0.6916,0.1904,0.2478,0.5357,0
2003/4/2 4:30,0.005,0,0,0,0.1974,0.1901,0.2341,0.5684,0
2003/4/2 4:45,0.0049,0,0,0,0.4903,0.1901,0.1613,0.5417,0
2003/4/2 5:00,0.0049,0,0.0006,0,0.6193,0.1895,0.3142,0.5473,0
2003/4/2 5:15,0.005,0,0.0006,0,0.2919,0.1915,0.1623,0.5337,0
2003/4/2 5:30,0.0052,0,0.0013,0,0.4795,0.1909,0.3198,0.5393,0
2003/4/2 5:45,0.005,0,0.0014,0,0.4298,0.1911,0.1643,0.5733,0
2003/4/2 6:00,0.0049,0,0.12,0,0.5111,0.3038,0.25,0.5705,0
2003/4/2 6:15,0.0049,0,0.8664,0.1027,0.6248,0.5342,0.2284,1.1942,0
2003/4/2 6:30,0.0049,0,0.594,0.4137,0.341,0.5646,0.3806,0.9762,0
2003/4/2 6:45,0.0049,0,0.0069,0,0.7746,0.1956,0.2436,0.7203,0
2003/4/2 7:00,0.0049,0,0,0,0.8918,0.2284,0.3282,0.7164,0
2003/4/2 7:15,0.005,0,0,0,0.6473,0.1902,0.1669,0.6836,0
2003/4/2 7:30,0.0049,0,0.1263,0,0.7733,0.1898,0.3375,0.7363,0
2003/4/2 7:45,0.005,0,0.1593,0,0.4069,0.1904,0.2699,0.6797,0
2003/4/2 8:00,0.005,0,0.0058,0,0.6303,0.1915,0.4163,0.7498,0
2003/4/2 8:15,0.0049,0,0,0,0.347,0.1915,0.165,0.7363,0
2003/4/2 8:30,0.005,0,0.0003,0.6366,0.4133,0.4075,0.3182,0.5698,0
2003/4/2 8:45,0.0049,0,0.3167,0,0.7219,0.5597,0.2441,0.4586,0
2003/4/2 9:00,1.0117,0,0.4473,0,0.3216,1.3375,0.3348,-0.5472,0
2003/4/2 9:15,1.2262,0,0.3433,0,0.4016,1.4635,0.1663,-0.3636,0
2003/4/2 9:30,0.3239,0,1.0636,0,0.5105,0.5118,0.3272,1.2875,0
2003/4/2 9:45,1.4777,0,0.0043,0.0022,0.414,1.7752,0.2369,-1.002,0
2003/4/2 10:00,1.0979,0,0.6545,0.0072,0.68,1.7376,0.2951,-0.5203,0
2003/4/2 10:15,0.8545,0,0.021,0.0072,0.2917,1.4835,0.2402,-0.3675,0
2003/4/2 10:30,0.7541,0,0.0181,0.0072,0.4167,1.3376,0.3609,-0.2373,0
2003/4/2 10:45,0.1679,0,0,0.0072,0.3728,0.4833,0.2445,0.3155,0
2003/4/2 11:00,0.005,0,0,0.0073,0.4383,0.1904,0.3237,0.4692,0
2003/4/2 11:15,0.005,0,0,0.0072,0.6702,0.1901,0.1692,0.4843,0
2003/4/2 11:30,0.005,0,0.0001,0.0072,0.2897,0.1909,0.3355,0.4762,0
2003/4/2 11:45,0.0052,0,0,0.0073,0.4879,0.1928,0.2392,0.4848,0
2003/4/2 12:00,0.0052,0,0,0.0073,0.3156,0.2341,0.256,0.4954,0
2003/4/2 12:15,0.0049,0,0,0.0072,0.4634,0.1901,0.2388,0.4879,0
2003/4/2 12:30,0.005,0,0,0.0072,0.6582,0.1908,0.2635,0.4733,0
2003/4/2 12:45,0.005,0,0,0.0072,0.318,0.1905,0.2385,0.4837,0
2003/4/2 13:00,0.005,0,0,0.0072,0.5057,0.1891,0.2573,0.4771,0
2003/4/2 13:15,0.005,0,0.0006,0.0072,0.2949,0.1905,0.238,0.4817,0
2003/4/2 13:30,0.005,0,0,0.0073,0.5021,0.192,0.2628,0.4788,0
2003/4/2 13:45,0.0052,0,0,0.0073,0.6034,0.1917,0.2403,0.4933,0
2003/4/2 14:00,0.005,0,0,0.0073,0.2684,0.1915,0.3326,0.4684,0
2003/4/2 14:15,0.0052,0,0,0.0073,0.4772,0.1917,0.1693,0.4951,0
2003/4/2 14:30,0.0052,0,0,0.0073,0.3542,0.1918,0.3371,0.4612,0
2003/4/2 14:45,0.005,0,0,0.0073,0.5397,0.1922,0.1701,0.4861,0
2003/4/2 15:00,0.0052,0,0.0003,0.0075,0.5656,0.1921,0.3361,0.4759,0
2003/4/2 15:15,0.0052,0,0.0003,0.0073,0.2527,0.1922,0.1705,0.4693,0
2003/4/2 15:30,0.005,0,0,0.0073,0.522,0.1918,0.2399,0.5128,0
2003/4/2 15:45,0.0052,0,0,0.0073,0.3669,0.1915,0.2583,0.4902,0
2003/4/2 16:00,0.005,0,0,0.0073,0.5517,0.1911,0.2444,0.4968,0
2003/4/2 16:15,0.0052,0,0,0.0073,0.4729,0.1912,0.2619,0.4854,0
2003/4/2 16:30,0.005,0,0,0.0072,0.2002,0.1909,0.2398,0.4804,0
2003/4/2 16:45,0.005,0,0,0.0073,0.5662,0.1899,0.2605,0.4906,0
2003/4/2 17:00,0.005,0,0,0.6242,0.3446,0.1907,0.2411,0.4961,0
2003/4/2 17:15,0.2601,0,0.0517,0.9959,0.5936,0.4487,0.2601,0.2677,0
2003/4/2 17:30,1.8992,0,0.4334,0.3617,0.3298,2.1456,0.2431,-1.4093,0
2003/4/2 17:45,1.0856,0,0.5672,0.1005,0.4497,1.296,0.3336,-0.5551,0
2003/4/2 18:00,1.0742,0,0.7868,0.0252,0.671,1.3697,0.2462,-0.6348,0
2003/4/2 18:15,0.865,0,0.7044,0.0251,0.3748,1.4714,0.2576,-0.4258,0
2003/4/2 18:30,0.8155,0,0.7021,0.0258,0.7659,1.4496,0.2431,-0.3558,0
2003/4/2 18:45,0.7992,0,0.7276,0.0829,0.8136,1.4039,0.2586,0.3653,0
2003/4/2 19:00,0.7996,0,0.703,0.1099,0.7929,1.4124,0.2441,0.0801,0
2003/4/2 19:15,0.787,0,0.8826,0.1106,0.6942,1.374,0.2556,0.2779,0
2003/4/2 19:30,0.7743,0,0.9242,0.3779,0.4841,1.345,0.2432,0.557,0
2003/4/2 19:45,0.7563,0,0.7465,0.5076,0.756,1.3487,0.2592,0.3362,0
2003/4/2 20:00,0.7165,0,0.6941,0,0.2163,1.2604,0.2405,0.4211,0
2003/4/2 20:15,0.6588,0,0.6896,0,0.527,1.2084,0.2412,0.3594,0
2003/4/2 20:30,0.7459,0,0.6885,0,0.5805,1.3095,0.3277,0.3806,0
2003/4/2 20:45,0.5903,0,0.5003,0,0.3259,1.1284,0.1691,0.4825,0
2003/4/2 21:00,0.5818,0,0.4709,0,0.6684,1.1294,0.3352,0.4391,0
2003/4/2 21:15,0.7152,0,0.4694,0,0.2916,1.2898,0.1691,0.2316,0
2003/4/2 21:30,0.5646,0,0.4697,0,0.4997,1.1058,0.3345,0.4366,0
2003/4/2 21:45,0.5616,0,0.4692,0,0.6346,1.0879,0.2133,0.4291,0
2003/4/2 22:00,0.5596,0,0.6843,0,0.2926,1.1192,0.2832,0.3125,0
2003/4/2 22:15,0.5701,0,1.2342,0,0.5472,1.1153,0.2642,0.1931,0
2003/4/2 22:30,0.6777,0,1.4049,0,0.321,1.2568,0.3326,0.1153,0
2003/4/2 22:45,0.6015,0,0.7929,0,0.4052,1.1809,0.1652,0.2245,0
2003/4/2 23:00,0.572,0,0.4044,0,0.7181,1.1644,0.2386,0.1611,0
2003/4/2 23:15,0.516,0,0.5063,0,0.3606,1.0322,0.3191,0.3516,0
2003/4/2 23:30,0.0049,0,0.8414,0,0.4946,0.1907,0.1637,0.786,0
2003/4/2 23:45,0.005,0,1.3139,0,0.4077,0.1924,0.3567,0.8283,0
2003/4/3 0:00,0.0052,0,0.286,0,0.2765,0.324,0.2642,0.8849,0
2003/4/3 0:15,0.0049,0,0.2271,0,0.6997,0.5194,0.2343,1.0188,0
2003/4/3 0:30,0.005,0,0.218,0,0.4804,0.2966,0.1636,0.9733,0
2003/4/3 0:45,0.005,0,0,0,0.3846,0.1924,0.3207,0.9958,0
2003/4/3 1:00,0.005,0,0,0,0.5044,0.1937,0.1636,1.0063,0
2003/4/3 1:15,0.005,0,0,0,0.3398,0.195,0.3254,0.9671,0
2003/4/3 1:30,0.0052,0,0,0,0.5952,0.1931,0.2369,0.9755,0
2003/4/3 1:45,0.005,0,0,0,0.4864,0.1912,0.2532,0.9484,0
2003/4/3 2:00,0.005,0,0,0,0.3583,0.1908,0.2343,0.9599,0
2003/4/3 2:15,0.005,0,0,0,0.5158,0.1911,0.2575,0.966,0
2003/4/3 2:30,0.005,0,0,0,0.2233,0.1911,0.2346,0.97,0
2003/4/3 2:45,0.005,0,0,0,0.599,0.192,0.2539,0.9599,0
2003/4/3 3:00,0.005,0,0.0003,0,0.5443,0.1924,0.2349,0.9783,0
2003/4/3 3:15,0.005,0,0,0,0.3671,0.1902,0.164,0.9602,0
2003/4/3 3:30,0.0049,0,0.001,0,0.6552,0.1899,0.327,0.9586,0
2003/4/3 3:45,0.005,0,0.0009,0,0.1292,0.1905,0.165,0.974,0
2003/4/3 4:00,0.005,0,0.0012,0,0.5496,0.1908,0.3237,1.0181,0
2003/4/3 4:15,0.0049,0,0.0027,0,0.5388,0.1905,0.1666,0.9505,0
2003/4/3 4:30,0.005,0,0.0032,0,0.3897,0.1908,0.3253,0.9459,0
2003/4/3 4:45,0.005,0,0.0037,0,0.6818,0.1901,0.1655,0.9458,0
2003/4/3 5:00,0.0049,0,0.0024,0,0.1492,0.1896,0.3214,0.9408,0
2003/4/3 5:15,0.005,0,0.0075,0,0.4834,0.1891,0.2327,0.9824,0
2003/4/3 5:30,0.0049,0,0.0121,0,0.5236,0.1908,0.2569,0.9361,0
2003/4/3 5:45,0.005,0,0.0084,0,0.4699,0.1915,0.2383,0.9559,0
2003/4/3 6:00,0.0049,0,0.211,0,0.6398,0.3532,0.2029,1.0153,0
2003/4/3 6:15,0.0049,0,0.7073,0.4503,0.6961,0.5515,0.3542,2.2247,0
2003/4/3 6:30,0.0048,0,0.4196,0.1158,0.9976,0.5514,0.3384,2.5741,0
2003/4/3 6:45,0.0048,0,0.055,0,0.5322,0.2314,0.2445,1.0987,0
2003/4/3 7:00,0.005,0,0,0,0.592,0.2278,0.3286,1.0256,0
2003/4/3 7:15,0.0049,0,0,0,0.627,0.1889,0.1698,1.0496,0
2003/4/3 7:30,0.0049,0,0.0003,0,0.3463,0.1899,0.3266,1.0676,0
2003/4/3 7:45,0.005,0,0,0,0.6238,0.1905,0.2491,0.8839,0
2003/4/3 8:00,0.005,0,0,0,0.1901,0.1922,0.3275,0.6362,0
2003/4/3 8:15,0.005,0,0,0,0.5724,0.1901,0.1693,0.6417,0
2003/4/3 8:30,0.3416,0,0.0194,0.4298,0.5541,0.5933,0.3293,0.2995,0
2003/4/3 8:45,1.7145,0,0.0081,0.2402,0.3794,2.3194,0.2252,-1.1876,0
2003/4/3 9:00,1.1686,0,0.0105,0,0.7148,1.7482,0.2589,-0.6828,0
2003/4/3 9:15,0.8899,0,0.0137,0,0.4199,1.4615,0.2363,-0.4321,0
2003/4/3 9:30,0.9903,0,0.0449,0,0.446,1.583,0.3335,-0.4775,0
2003/4/3 9:45,0.8316,0,0.7086,0,0.4716,1.4316,0.3655,-0.3031,0
2003/4/3 10:00,0.8024,0,0.0071,0,0.4094,1.4109,0.1668,-0.1571,0
2003/4/3 10:15,0.4768,0,0.0026,0,0.7072,0.898,0.4074,-0.0033,0
2003/4/3 10:30,0.0052,0,0.0014,0,0.3372,0.1924,0.168,0.4751,0
2003/4/3 10:45,0.005,0,0.0046,0,0.3469,0.1921,0.3362,0.5039,0
2003/4/3 11:00,0.0052,0,0.0043,0,0.5318,0.1915,0.2388,0.4735,0
2003/4/3 11:15,0.005,0,0.0016,0,0.3555,0.1922,0.2619,0.4841,0
2003/4/3 11:30,0.005,0,0.0027,0,0.679,0.1915,0.2346,0.4959,0
2003/4/3 11:45,0.0052,0,0.0027,0,0.3658,0.1922,0.258,0.486,0
2003/4/3 12:00,0.0052,0,0.0024,0,0.3483,0.2235,0.2399,0.454,0
2003/4/3 12:15,0.005,0,0.0026,0,0.4676,0.1909,0.1659,0.4713,0
2003/4/3 12:30,0.005,0,0.0014,0,0.3403,0.1907,0.3275,0.4667,0
2003/4/3 12:45,0.0049,0,0.0007,0,0.6853,0.1896,0.1644,0.4709,0
2003/4/3 13:00,0.005,0,0.0024,0,0.3709,0.1888,0.3185,0.4782,0
2003/4/3 13:15,0.005,0,0.002,0,0.3097,0.1918,0.1646,0.4654,0
2003/4/3 13:30,0.0052,0,0.0007,0,0.7134,0.1924,0.3249,0.5113,0
2003/4/3 13:45,0.005,0,0.0003,0,0.3707,0.1922,0.1642,0.4896,0
2003/4/3 14:00,0.0052,0,0.0014,0,0.401,0.1925,0.3246,0.4948,0
2003/4/3 14:15,0.005,0,0.0016,0,0.5613,0.1917,0.1632,0.4967,0
2003/4/3 14:30,0.005,0,0,0,0.1921,0.1896,0.2275,0.4634,0
2003/4/3 14:45,0.005,0,0.0003,0,0.5905,0.1899,0.2956,0.4689,0
2003/4/3 15:00,0.005,0,0,0,0.5332,0.1902,0.1963,0.4889,0
2003/4/3 15:15,0.005,0,0,0,0.3612,0.1904,0.2507,0.4697,0
2003/4/3 15:30,0.005,0,0,0,0.508,0.1902,0.2292,0.4467,0
2003/4/3 15:45,0.005,0,0,0,0.4419,0.1892,0.2447,0.451,0
2003/4/3 16:00,0.0049,0,0.0003,0,0.4846,0.1894,0.2308,0.4607,0
2003/4/3 16:15,0.005,0,0,0,0.6801,0.1894,0.1626,0.448,0
2003/4/3 16:30,0.005,0,0,0,0.1853,0.1899,0.319,0.4568,0
2003/4/3 16:45,0.0049,0,0.0003,0,0.5174,0.1895,0.1611,0.4355,0
2003/4/3 17:00,0.0049,0,0.0003,0,0.4869,0.1891,0.3182,0.4562,0
2003/4/3 17:15,0.005,0,0.0003,0,0.3648,0.1894,0.1616,0.4592,0
2003/4/3 17:30,0.0049,0,0.0007,0,0.682,0.1904,0.3216,0.4707,0
2003/4/3 17:45,0.005,0,0.0006,0,0.6042,0.1898,0.1597,0.4548,0
2003/4/3 18:00,0.005,0,0.0014,0,0.7384,0.1914,0.2323,0.4631,0
2003/4/3 18:15,0.005,0,0.0037,0,1.0061,0.1908,0.2504,0.4941,0
2003/4/3 18:30,0.005,0,0.0048,0,0.5845,0.1905,0.2288,0.489,0
2003/4/3 18:45,0.0049,0,0.0043,0,0.5491,0.1902,0.2559,0.4778,0
2003/4/3 19:00,0.005,0,0.0109,0,0.7266,0.2301,0.2265,0.4882,0
2003/4/3 19:15,0.005,0,0.0451,0,0.1816,0.1914,0.3226,0.5155,0
2003/4/3 19:30,0.005,0,0.466,0,0.5468,0.1915,0.1647,0.4882,0
2003/4/3 19:45,0.005,0,0.635,0,0.5203,0.1908,0.234,0.4529,0
2003/4/3 20:00,0.005,0,0.699,0,0.3469,0.255,0.2526,0.4975,0
2003/4/3 20:15,0.005,0,0.6921,0.7268,0.5966,0.5492,0.238,0.4545,0
2003/4/3 20:30,0.9396,0,0.6915,0,0.2439,1.5113,0.255,-0.3963,0
2003/4/3 20:45,1.1687,0,0.6882,0,0.555,1.7836,0.2324,-0.6193,0
2003/4/3 21:00,0.9261,0,0.6827,0,0.5761,1.5146,0.2544,-0.3887,0
2003/4/3 21:15,0.811,0,0.4802,0,0.1686,1.3782,0.235,-0.2448,0
2003/4/3 21:30,0.7682,0,0.4706,0.4725,0.6324,1.3507,0.2527,-0.2125,0
2003/4/3 21:45,0.7682,0,0.5456,0.3656,0.4226,1.3935,0.2393,-0.2287,0
2003/4/3 22:00,0.6093,0,0.9474,0,0.5194,1.2105,0.2576,-0.1433,0
2003/4/3 22:15,0.7435,0,1.0358,0,0.6065,1.3275,0.2379,0.3725,0
2003/4/3 22:30,0.5954,0,1.1673,0,0.2916,1.1635,0.1676,0.3573,0
2003/4/3 22:45,0.5927,0,0.7684,0,0.6061,1.1513,0.3263,0.4028,0
2003/4/3 23:00,0.6028,0,0.4147,0,0.4677,1.2244,0.168,0.2756,0
2003/4/3 23:15,0.6003,0,0.416,0,0.4506,1.1994,0.3214,0.4049,0
2003/4/3 23:30,0.6227,0,0.9884,0,0.4611,1.1853,0.1646,0.3205,0
2003/4/3 23:45,0.2942,0,1.2995,0,0.3126,0.6631,0.3532,0.6587,0
2003/4/4 0:00,0.005,0,1.0129,0,0.6329,0.1983,0.2562,0.9324,0
2003/4/4 0:15,0.005,0,0.1156,0,0.4801,0.4853,0.2392,0.9094,0
2003/4/4 0:30,0.005,0,0.3103,0,0.382,0.4146,0.2605,0.9323,0
2003/4/4 0:45,0.005,0,0,0,0.5484,0.1968,0.2364,0.931,0
2003/4/4 1:00,0.005,0,0,0,0.197,0.1971,0.1673,0.9321,0
2003/4/4 1:15,0.005,0,0.0001,0,0.6162,0.1976,0.33,0.9266,0
2003/4/4 1:30,0.005,0,0.0003,0,0.5236,0.1954,0.1669,0.9405,0
2003/4/4 1:45,0.005,0,0.0014,0,0.394,0.1954,0.328,0.9605,0
2003/4/4 2:00,0.005,0,0.001,0,0.634,0.1937,0.2364,0.923,0
2003/4/4 2:15,0.0049,0,0.0032,0,0.1079,0.1947,0.2536,1.0133,0
2003/4/4 2:30,0.0049,0,0.0058,0,0.5926,0.1935,0.2366,0.9163,0
2003/4/4 2:45,0.005,0,0.0076,0,0.4824,0.195,0.2585,0.8994,0
2003/4/4 3:00,0.005,0,0.0127,0,0.4476,0.1964,0.2372,0.8817,0
2003/4/4 3:15,0.0049,0,0.0212,0,0.5188,0.1954,0.2663,0.9063,0
2003/4/4 3:30,0.005,0,0.0226,0,0.1437,0.1968,0.2424,0.8924,0
2003/4/4 3:45,0.005,0,0.0216,0,0.6971,0.1961,0.2612,0.8735,0
2003/4/4 4:00,0.005,0,0.0261,0,0.3652,0.1983,0.24,0.9503,0
2003/4/4 4:15,0.005,0,0.0281,0,0.4908,0.1981,0.2601,0.9336,0
2003/4/4 4:30,0.0049,0,0.0256,0,0.3023,0.197,0.2409,0.8875,0
2003/4/4 4:45,0.005,0,0.0197,0,0.3315,0.1967,0.2631,0.8814,0
2003/4/4 5:00,0.005,0,0.0276,0,0.7321,0.196,0.2432,0.8801,0
2003/4/4 5:15,0.0049,0,0.0312,0,0.3721,0.1947,0.3256,0.9305,0
2003/4/4 5:30,0.0049,0,0.0297,0,0.901,0.1953,0.1719,0.8666,0
2003/4/4 5:45,0.0049,0,0.0269,0,0.8163,0.1932,0.3349,0.9301,0
2003/4/4 6:00,0.0049,0,0.0003,0,0.6492,0.3509,0.1806,0.9608,0
2003/4/4 6:15,0.0049,0,0.4549,0.4398,0.5959,0.5488,0.4798,1.9567,0
2003/4/4 6:30,0.0049,0,0.0017,0.1182,0.4635,0.5568,0.2681,3.3772,0
2003/4/4 6:45,0.0049,0,0,0,0.666,0.2029,0.3557,1.2031,0
2003/4/4 7:00,0.005,0,0,0,0.1346,0.2285,0.3499,1.0899,0
2003/4/4 7:15,0.0049,0,0.0003,0,0.609,0.1901,0.1884,1.1084,0
2003/4/4 7:30,0.005,0,0,0,0.3849,0.1899,0.3456,1.0653,0
2003/4/4 7:45,0.005,0,0.0003,0,0.5531,0.1908,0.2608,1.0863,0
2003/4/4 8:00,0.005,0,0,0,0.4297,0.1918,0.3226,1.1,0
2003/4/4 8:15,0.005,0,0,0,0.2238,0.1909,0.2595,1.0708,0
2003/4/4 8:30,0.005,0,0.0006,0,0.6342,0.1921,0.2837,1.0254,0
2003/4/4 8:45,0.005,0,0,0,0.3201,0.1925,0.3485,1.0305,0
2003/4/4 9:00,0.005,0,0.0003,0.6996,0.6503,0.4332,0.186,0.9301,0
2003/4/4 9:15,0.0049,0,0.0668,0.0035,0.1521,0.577,0.348,0.841,0
2003/4/4 9:30,0.0049,0,0.0575,0.0072,0.5034,0.5617,0.1845,0.9285,0
2003/4/4 9:45,0.0049,0,0.0693,0.0071,0.5252,0.5437,0.345,0.8107,0
2003/4/4 10:00,0.0049,0,0.671,0.0072,0.3689,0.5809,0.444,0.9906,0
2003/4/4 10:15,0.005,0,0.0007,0.0072,0.5511,0.3956,0.3527,0.8918,0
2003/4/4 10:30,0.005,0,0.0006,0.0072,0.1462,0.1904,0.2562,0.8533,0
2003/4/4 10:45,0.0049,0,0.0003,0.0072,0.6556,0.1901,0.2729,0.8349,0
2003/4/4 11:00,0.005,0,0.0003,0.0072,0.4409,0.1907,0.257,0.8339,0
2003/4/4 11:15,0.005,0,0.0012,0.0073,0.4342,0.1908,0.3459,0.8411,0
2003/4/4 11:30,0.005,0,0.0007,0.0072,0.3881,0.1901,0.1853,0.843,0
2003/4/4 11:45,0.005,0,0.0006,0.0072,0.3264,0.1904,0.3391,0.8279,0
2003/4/4 12:00,0.005,0,0.0009,0.0073,0.6952,0.2219,0.1839,0.8712,0
2003/4/4 12:15,0.0052,0,0.0019,0.0075,0.3594,0.1934,0.3449,0.888,0
2003/4/4 12:30,0.005,0,0.0006,0.0072,0.348,0.1904,0.1832,0.8741,0
2003/4/4 12:45,0.0049,0,0.0007,0.0072,0.454,0.1899,0.3443,0.88,0
2003/4/4 13:00,0.005,0,0.0006,0.0072,0.3653,0.1881,0.1809,0.8306,0
2003/4/4 13:15,0.0049,0,0.0003,0.0072,0.6791,0.1881,0.3383,0.8353,0
2003/4/4 13:30,0.005,0,0.0003,0.0072,0.2946,0.1909,0.2477,0.8261,0
2003/4/4 13:45,0.005,0,0.0013,0.0073,0.3296,0.1909,0.1804,0.8284,0
2003/4/4 14:00,0.005,0,0.0009,0.0072,0.5728,0.1908,0.3404,0.8408,0
2003/4/4 14:15,0.005,0,0.0003,0.0073,0.3326,0.1908,0.181,0.9183,0
2003/4/4 14:30,0.005,0,0.0009,0.0072,0.6791,0.1908,0.3406,0.8883,0
2003/4/4 14:45,0.005,0,0.0004,0.0073,0.2808,0.1912,0.1793,0.8803,0
2003/4/4 15:00,0.005,0,0.0006,0.0072,0.3388,0.1911,0.3419,0.8256,0
2003/4/4 15:15,0.005,0,0.0006,0.0073,0.6371,0.1909,0.1793,0.8267,0
2003/4/4 15:30,0.005,0,0.0003,0.0073,0.33,0.1908,0.3375,0.8303,0
2003/4/4 15:45,0.005,0,0.0006,0.0072,0.6762,0.1899,0.1781,0.846,0
2003/4/4 16:00,0.005,0,0.0003,0.0073,0.2634,0.1894,0.345,0.8319,0
2003/4/4 16:15,0.005,0,0.0006,0.0072,0.3501,0.1894,0.1784,0.822,0
2003/4/4 16:30,0.0049,0,0.0003,0.0072,0.6638,0.1894,0.2455,0.9048,0
2003/4/4 16:45,0.0049,0,0.001,0.0071,0.2809,0.1888,0.2712,0.9105,0
2003/4/4 17:00,0.005,0,0.0014,0.5993,0.4671,0.1888,0.2435,0.828,0
2003/4/4 17:15,0.0049,0,0.0006,0.9868,0.5046,0.1898,0.3192,0.8404,0
2003/4/4 17:30,0.005,0,0.0024,0.3231,0.452,0.1904,0.1945,0.9069,0
2003/4/4 17:45,0.0049,0,0.0024,0.0668,0.9,0.1898,0.3047,0.8594,0
2003/4/4 18:00,0.005,0,0.0059,0.0253,0.7525,0.1901,0.2081,0.9157,0
2003/4/4 18:15,0.005,0,0.0189,0.0256,0.7402,0.1905,0.3321,0.8369,0
2003/4/4 18:30,0.005,0,0.0199,0.0258,0.5917,0.1908,0.1848,0.9141,0
2003/4/4 18:45,0.0049,0,0.0121,0.0966,0.452,0.1908,0.2452,0.4349,0
2003/4/4 19:00,0.005,0,0.0163,0.1116,0.5625,0.23,0.2686,0.4539,0
2003/4/4 19:15,0.005,0,0.0115,0.107,0.2624,0.1911,0.2484,0.4699,0
2003/4/4 19:30,0.0052,0,0.0156,0.114,0.5466,0.1915,0.266,0.4703,0
2003/4/4 19:45,0.005,0,0.0148,0.1142,0.3557,0.1922,0.2467,0.4735,0
2003/4/4 20:00,0.005,0,0.0255,0.1086,0.4002,0.1922,0.2691,0.4486,0
2003/4/4 20:15,0.0052,0,0.0202,0.1104,0.6767,0.1914,0.2524,0.473,0
2003/4/4 20:30,0.005,0,0.017,0.1153,0.1672,0.1928,0.275,0.4667,0
2003/4/4 20:45,0.005,0,0.0216,0.1148,0.5174,0.1927,0.2516,0.4506,0
2003/4/4 21:00,0.0052,0,0.0246,0.1135,0.5142,0.1914,0.1793,0.4664,0
2003/4/4 21:15,0.0049,0,0.6542,0.1132,0.4281,0.1905,0.3383,0.4887,0
2003/4/4 21:30,0.005,0,0.9027,0.1136,0.6962,0.1899,0.1826,0.7199,0
2003/4/4 21:45,0.005,0,0.8983,0.1107,0.2313,0.1905,0.3652,0.6591,0
2003/4/4 22:00,1.0017,0,1.0725,0.3632,0.4234,1.2807,0.2714,-0.4954,0
2003/4/4 22:15,1.4626,0,1.2443,0,0.5103,2.0817,0.2496,-1.1052,0
2003/4/4 22:30,0.95,0,0.9693,0,0.4461,1.5324,0.2739,-0.4884,0
2003/4/4 22:45,0.8819,0,0.5293,0,0.6468,1.4905,0.2532,-0.4429,0